QPF
0.00 0.00 0.00 0.00 0.00 0.00 0.00 0.00 0.00 0.00 0.00 0.00 0.00 0.00 0.00 0.00 0.00 0.00 0.00 0.00 0.00 0.00 0.01 0.01 0.01 0.01 0.01 0.01 0.02 0.02 0.01 0.01 0.01 0.01 0.02 0.02 0.02 0.02 0.02 0.02 0.02 0.02 0.01 0.01 0.01 0.01 0.00 0.00 0.00
0.00 0.00 0.00 0.00 0.00 0.00 0.00 0.00 0.00 0.00 0.00 0.00 0.00 0.00 0.00 0.00 0.00 0.00 0.00 0.00 0.00 0.00 0.01 0.01 0.01 0.01 0.01 0.01 0.02 0.02 0.02 0.02 0.01 0.01 0.02 0.02 0.03 0.03 0.03 0.02 0.01 0.02 0.01 0.01 0.01 0.01 0.00 0.00 0.00
0.00 0.00 0.00 0.00 0.00 0.00 0.00 0.00 0.00 0.00 0.00 0.00 0.00 0.00 0.00 0.00 0.00 0.00 0.00 0.00 0.00 0.00 0.00 0.01 0.00 0.01 0.01 0.01 0.01 0.02 0.02 0.02 0.02 0.02 0.02 0.02 0.02 0.02 0.02 0.02 0.01 0.01 0.01 0.01 0.01 0.00 0.00 0.00 0.00
0.00 0.00 0.00 0.00 0.00 0.00 0.00 0.00 0.00 0.00 0.00 0.00 0.00 0.00 0.00 0.00 0.00 0.00 0.00 0.00 0.00 0.00 0.00 0.00 0.00 0.00 0.00 0.01 0.01 0.01 0.02 0.02 0.02 0.02 0.03 0.03 0.03 0.02 0.01 0.01 0.01 0.01 0.01 0.01 0.01 0.00 0.00 0.00 0.00
0.00 0.00 0.00 0.00 0.00 0.00 0.00 0.00 0.00 0.00 0.00 0.00 0.00 0.00 0.00 0.00 0.00 0.00 0.00 0.00 0.00 0.00 0.00 0.00 0.00 0.00 0.00 0.00 0.00 0.01 0.01 0.02 0.02 0.02 0.02 0.02 0.02 0.02 0.01 0.01 0.01 0.01 0.01 0.01 0.01 0.01 0.00 0.00 0.00
0.00 0.00 0.00 0.00 0.00 0.00 0.00 0.00 0.00 0.00 0.00 0.00 0.00 0.00 0.01 0.00 0.00 0.00 0.00 0.00 0.00 0.00 0.00 0.00 0.00 0.00 0.00 0.00 0.00 0.01 0.01 0.01 0.02 0.02 0.02 0.02 0.02 0.01 0.01 0.01 0.00 0.00 0.01 0.01 0.01 0.01 0.00 0.00 0.00
0.00 0.00 0.00 0.00 0.00 0.00 0.00 0.00 0.00 0.00 0.00 0.00 0.00 0.00 0.01 0.01 0.01 0.01 0.00 0.00 0.00 0.00 0.00 0.00 0.00 0.01 0.00 0.00 0.00 0.00 0.00 0.01 0.01 0.01 0.01 0.01 0.01 0.01 0.01 0.01 0.00 0.00 0.01 0.01 0.01 0.01 0.01 0.00 0.00
0.00 0.00 0.00 0.01 0.01 0.01 0.00 0.00 0.00 0.00 0.00 0.00 0.00 0.01 0.01 0.02 0.01 0.01 0.01 0.01 0.01 0.00 0.00 0.00 0.00 0.01 0.01 0.01 0.00 0.00 0.00 0.00 0.01 0.01 0.01 0.01 0.01 0.01 0.01 0.01 0.01 0.01 0.01 0.01 0.01 0.01 0.01 0.00 0.00
0.00 0.00 0.00 0.00 0.01 0.01 0.00 0.00 0.00 0.00 0.00 0.00 0.01 0.01 0.01 0.01 0.01 0.01 0.01 0.02 0.02 0.01 0.01 0.01 0.01 0.01 0.01 0.01 0.01 0.01 0.00 0.00 0.00 0.01 0.01 0.01 0.00 0.00 0.00 0.01 0.01 0.01 0.01 0.01 0.01 0.01 0.01 0.00 0.00
0.01 0.00 0.00 0.00 0.01 0.01 0.01 0.00 0.00 0.00 0.00 0.00 0.01 0.01 0.01 0.01 0.01 0.01 0.01 0.01 0.01 0.01 0.01 0.01 0.01 0.01 0.01 0.01 0.01 0.01 0.01 0.00 0.00 0.01 0.01 0.01 0.01 0.01 0.01 0.01 0.01 0.01 0.01 0.01 0.01 0.01 0.01 0.00 0.00
0.01 0.00 0.00 0.00 0.01 0.01 0.01 0.01 0.00 0.00 0.00 0.00 0.00 0.01 0.02 0.01 0.01 0.01 0.01 0.01 0.01 0.01 0.01 0.01 0.01 0.02 0.02 0.02 0.02 0.01 0.01 0.00 0.00 0.01 0.02 0.02 0.02 0.01 0.01 0.01 0.01 0.01 0.00 0.00 0.00 0.00 0.00 0.00 0.00
0.01 0.01 0.00 0.00 0.00 0.01 0.01 0.00 0.01 0.01 0.01 0.01 0.02 0.01 0.02 0.02 0.01 0.01 0.01 0.01 0.01 0.01 0.01 0.01 0.02 0.01 0.02 0.03 0.02 0.02 0.01 0.01 0.00 0.00 0.01 0.02 0.03 0.03 0.02 0.02 0.01 0.01 0.01 0.01 0.00 0.00 0.00 0.00 0.00
0.01 0.01 0.00 0.00 0.00 0.00 0.00 0.00 0.00 0.01 0.01 0.02 0.03 0.02 0.03 0.03 0.02 0.01 0.01 0.01 0.01 0.02 0.02 0.02 0.02 0.01 0.02 0.02 0.03 0.02 0.02 0.01 0.01 0.00 0.01 0.01 0.02 0.02 0.02 0.02 0.02 0.02 0.02 0.01 0.01 0.00 0.00 0.00 0.00
0.01 0.01 0.01 0.00 0.00 0.00 0.00 0.00 0.00 0.00 0.01 0.02 0.04 0.04 0.04 0.03 0.03 0.02 0.02 0.02 0.03 0.03 0.03 0.02 0.02 0.01 0.01 0.02 0.03 0.03 0.03 0.02 0.02 0.02 0.02 0.02 0.02 0.03 0.03 0.02 0.02 0.02 0.02 0.02 0.01 0.01 0.00 0.00 0.00
0.01 0.01 0.01 0.01 0.00 0.00 0.00 0.00 0.00 0.00 0.01 0.02 0.03 0.04 0.04 0.04 0.03 0.02 0.02 0.02 0.03 0.03 0.04 0.04 0.03 0.02 0.02 0.02 0.03 0.04 0.04 0.03 0.02 0.02 0.01 0.01 0.01 0.01 0.02 0.03 0.02 0.02 0.02 0.01 0.01 0.01 0.01 0.00 0.00
0.02 0.02 0.02 0.01 0.00 0.00 0.01 0.00 0.00 0.00 0.01 0.01 0.01 0.02 0.03 0.04 0.04 0.03 0.02 0.02 0.03 0.04 0.04 0.04 0.04 0.03 0.03 0.02 0.02 0.03 0.04 0.04 0.03 0.02 0.01 0.01 0.01 0.01 0.02 0.03 0.02 0.02 0.02 0.02 0.01 0.01 0.01 0.01 0.01
0.04 0.03 0.02 0.01 0.01 0.01 0.01 0.01 0.00 0.00 0.01 0.01 0.01 0.01 0.01 0.01 0.02 0.03 0.03 0.02 0.02 0.03 0.05 0.06 0.06 0.06 0.05 0.04 0.03 0.03 0.04 0.04 0.04 0.03 0.03 0.02 0.02 0.02 0.02 0.02 0.02 0.02 0.02 0.02 0.02 0.01 0.01 0.01 0.01
0.03 0.02 0.01 0.01 0.02 0.02 0.01 0.01 0.01 0.00 0.00 0.00 0.01 0.01 0.01 0.01 0.01 0.01 0.02 0.02 0.02 0.02 0.03 0.05 0.06 0.06 0.07 0.07 0.05 0.05 0.05 0.05 0.05 0.05 0.04 0.03 0.02 0.01 0.01 0.01 0.01 0.02 0.03 0.03 0.03 0.03 0.02 0.02 0.01
0.02 0.01 0.01 0.01 0.02 0.03 0.03 0.02 0.02 0.01 0.01 0.01 0.01 0.02 0.03 0.02 0.02 0.02 0.02 0.02 0.02 0.02 0.03 0.04 0.05 0.06 0.08 0.09 0.09 0.08 0.06 0.07 0.08 0.06 0.05 0.04 0.03 0.02 0.02 0.01 0.01 0.02 0.03 0.04 0.04 0.04 0.03 0.02 0.02
0.02 0.02 0.02 0.02 0.02 0.02 0.03 0.03 0.02 0.02 0.02 0.01 0.01 0.03 0.04 0.03 0.03 0.03 0.03 0.04 0.03 0.03 0.03 0.03 0.04 0.04 0.06 0.09 0.11 0.11 0.09 0.07 0.07 0.07 0.06 0.05 0.04 0.04 0.03 0.03 0.02 0.02 0.03 0.03 0.04 0.05 0.04 0.03 0.03
0.03 0.02 0.02 0.02 0.03 0.03 0.03 0.04 0.03 0.05 0.04 0.02 0.01 0.02 0.03 0.03 0.03 0.03 0.03 0.02 0.02 0.02 0.02 0.03 0.05 0.05 0.06 0.07 0.09 0.12 0.14 0.12 0.09 0.08 0.07 0.06 0.06 0.05 0.05 0.05 0.04 0.04 0.04 0.04 0.04 0.05 0.05 0.05 0.04
0.03 0.02 0.03 0.03 0.03 0.05 0.04 0.05 0.05 0.05 0.05 0.04 0.02 0.01 0.02 0.03 0.02 0.03 0.03 0.03 0.02 0.01 0.01 0.02 0.03 0.05 0.07 0.10 0.11 0.11 0.11 0.12 0.12 0.11 0.09 0.07 0.06 0.06 0.06 0.06 0.06 0.05 0.05 0.05 0.04 0.05 0.06 0.06 0.06
0.02 0.02 0.03 0.04 0.05 0.06 0.05 0.05 0.05 0.05 0.06 0.05 0.05 0.04 0.03 0.03 0.02 0.02 0.03 0.03 0.03 0.02 0.02 0.02 0.02 0.04 0.06 0.09 0.11 0.13 0.13 0.12 0.11 0.10 0.09 0.09 0.08 0.07 0.07 0.07 0.06 0.06 0.06 0.06 0.05 0.05 0.06 0.07 0.07
0.03 0.04 0.06 0.07 0.08 0.10 0.06 0.05 0.05 0.04 0.07 0.06 0.05 0.04 0.03 0.03 0.03 0.03 0.03 0.03 0.03 0.03 0.03 0.02 0.03 0.02 0.03 0.05 0.07 0.09 0.10 0.10 0.10 0.09 0.09 0.09 0.09 0.09 0.09 0.07 0.07 0.06 0.06 0.06 0.05 0.05 0.05 0.06 0.07
0.04 0.06 0.10 0.11 0.12 0.10 0.05 0.04 0.04 0.04 0.04 0.04 0.03 0.02 0.02 0.02 0.02 0.02 0.02 0.03 0.03 0.03 0.03 0.04 0.04 0.04 0.02 0.03 0.05 0.06 0.08 0.09 0.09 0.09 0.09 0.09 0.10 0.10 0.09 0.08 0.07 0.07 0.07 0.06 0.06 0.06 0.05 0.06 0.07
0.04 0.05 0.06 0.06 0.06 0.04 0.03 0.04 0.04 0.02 0.02 0.01 0.01 0.01 0.02 0.03 0.03 0.03 0.02 0.02 0.03 0.03 0.03 0.04 0.05 0.04 0.03 0.02 0.03 0.04 0.05 0.07 0.08 0.08 0.08 0.09 0.09 0.09 0.09 0.09 0.09 0.08 0.08 0.07 0.07 0.08 0.07 0.07 0.08
0.05 0.05 0.04 0.04 0.03 0.02 0.02 0.03 0.02 0.02 0.01 0.01 0.01 0.01 0.02 0.02 0.02 0.03 0.03 0.02 0.02 0.03 0.02 0.01 0.02 0.02 0.02 0.02 0.02 0.03 0.04 0.05 0.06 0.07 0.07 0.07 0.08 0.08 0.08 0.09 0.09 0.09 0.09 0.08 0.09 0.09 0.09 0.09 0.09
0.03 0.04 0.04 0.04 0.04 0.02 0.02 0.02 0.02 0.01 0.01 0.01 0.01 0.01 0.01 0.01 0.01 0.02 0.03 0.03 0.02 0.02 0.01 0.01 0.01 0.01 0.01 0.01 0.02 0.02 0.03 0.04 0.05 0.05 0.05 0.05 0.06 0.06 0.06 0.06 0.06 0.07 0.08 0.09 0.10 0.12 0.13 0.14 0.14
0.04 0.04 0.04 0.04 0.03 0.02 0.01 0.01 0.01 0.01 0.01 0.01 0.01 0.01 0.01 0.01 0.01 0.01 0.02 0.02 0.02 0.02 0.01 0.01 0.01 0.01 0.01 0.01 0.01 0.02 0.02 0.04 0.05 0.05 0.04 0.04 0.04 0.05 0.06 0.05 0.05 0.05 0.06 0.07 0.09 0.11 0.12 0.12 0.12
0.04 0.04 0.03 0.03 0.03 0.01 0.01 0.01 0.01 0.01 0.01 0.00 0.00 0.01 0.01 0.01 0.01 0.02 0.02 0.03 0.03 0.02 0.02 0.01 0.01 0.01 0.00 0.01 0.01 0.01 0.01 0.03 0.03 0.04 0.04 0.04 0.04 0.05 0.06 0.06 0.05 0.05 0.05 0.06 0.06 0.06 0.05 0.04 0.04
MSLP
1016.31 1016.60 1017.07 1017.62 1018.12 1018.43 1018.47 1018.18 1017.60 1016.82 1015.98 1015.21 1014.64 1014.31 1014.22 1014.31 1014.48 1014.63 1014.70 1014.66 1014.55 1014.43 1014.37 1014.46 1014.72 1015.13 1015.63 1016.14 1016.59 1016.93 1017.14 1017.25 1017.30 1017.36 1017.47 1017.65 1017.88 1018.12 1018.33 1018.47 1018.53 1018.53 1018.50 1018.49 1018.54 1018.66 1018.85 1019.07 1019.26
1016.72 1017.09 1017.60 1018.14 1018.57 1018.75 1018.61 1018.13 1017.35 1016.40 1015.42 1014.57 1013.96 1013.64 1013.59 1013.75 1014.00 1014.24 1014.41 1014.47 1014.45 1014.41 1014.43 1014.57 1014.85 1015.25 1015.73 1016.21 1016.62 1016.92 1017.11 1017.22 1017.30 1017.40 1017.56 1017.78 1018.04 1018.30 1018.52 1018.66 1018.71 1018.70 1018.67 1018.66 1018.72 1018.86 1019.06 1019.29 1019.51
1017.08 1017.51 1018.04 1018.55 1018.90 1018.96 1018.67 1018.03 1017.11 1016.03 1014.97 1014.08 1013.45 1013.14 1013.13 1013.33 1013.65 1013.96 1014.21 1014.35 1014.43 1014.49 1014.59 1014.78 1015.10 1015.50 1015.95 1016.38 1016.73 1016.98 1017.13 1017.22 1017.29 1017.40 1017.57 1017.81 1018.09 1018.36 1018.58 1018.72 1018.78 1018.77 1018.75 1018.75 1018.83 1018.98 1019.20 1019.45 1019.68
1017.40 1017.87 1018.41 1018.89 1019.16 1019.13 1018.73 1017.98 1016.97 1015.84 1014.75 1013.84 1013.23 1012.93 1012.93 1013.15 1013.48 1013.82 1014.12 1014.33 1014.49 1014.63 1014.82 1015.08 1015.43 1015.84 1016.27 1016.65 1016.94 1017.13 1017.22 1017.26 1017.31 1017.40 1017.56 1017.79 1018.07 1018.34 1018.56 1018.70 1018.77 1018.77 1018.77 1018.80 1018.89 1019.06 1019.29 1019.55 1019.80
1017.73 1018.23 1018.77 1019.21 1019.43 1019.33 1018.86 1018.07 1017.03 1015.90 1014.83 1013.95 1013.35 1013.06 1013.04 1013.23 1013.54 1013.86 1014.15 1014.39 1014.59 1014.80 1015.06 1015.39 1015.79 1016.22 1016.63 1016.98 1017.22 1017.35 1017.39 1017.38 1017.38 1017.44 1017.57 1017.79 1018.05 1018.31 1018.52 1018.67 1018.75 1018.78 1018.80 1018.85 1018.96 1019.14 1019.38 1019.64 1019.88
1018.11 1018.64 1019.18 1019.60 1019.77 1019.62 1019.13 1018.33 1017.32 1016.24 1015.22 1014.40 1013.82 1013.53 1013.47 1013.59 1013.82 1014.07 1014.31 1014.52 1014.73 1014.98 1015.29 1015.67 1016.11 1016.56 1016.97 1017.30 1017.52 1017.61 1017.61 1017.57 1017.54 1017.57 1017.68 1017.86 1018.10 1018.34 1018.56 1018.71 1018.80 1018.86 1018.90 1018.97 1019.09 1019.27 1019.49 1019.73 1019.95
1018.62 1019.17 1019.70 1020.08 1020.21 1020.03 1019.53 1018.76 1017.81 1016.81 1015.88 1015.12 1014.58 1014.27 1014.16 1014.19 1014.31 1014.44 1014.58 1014.73 1014.91 1015.16 1015.48 1015.88 1016.34 1016.81 1017.23 1017.56 1017.76 1017.85 1017.84 1017.80 1017.76 1017.78 1017.88 1018.05 1018.27 1018.50 1018.70 1018.86 1018.96 1019.03 1019.09 1019.17 1019.29 1019.46 1019.66 1019.86 1020.04
1019.26 1019.83 1020.33 1020.67 1020.75 1020.53 1020.02 1019.29 1018.41 1017.51 1016.68 1016.00 1015.50 1015.19 1015.02 1014.96 1014.95 1014.96 1014.99 1015.04 1015.16 1015.36 1015.65 1016.04 1016.50 1016.96 1017.37 1017.70 1017.91 1018.01 1018.03 1018.02 1018.01 1018.06 1018.17 1018.34 1018.54 1018.76 1018.95 1019.10 1019.20 1019.28 1019.35 1019.44 1019.55 1019.70 1019.86 1020.01 1020.14
1020.04 1020.60 1021.07 1021.33 1021.34 1021.07 1020.54 1019.83 1019.02 1018.22 1017.49 1016.90 1016.45 1016.15 1015.95 1015.81 1015.70 1015.60 1015.51 1015.47 1015.50 1015.62 1015.86 1016.19 1016.59 1017.01 1017.39 1017.70 1017.92 1018.05 1018.12 1018.16 1018.21 1018.31 1018.45 1018.64 1018.85 1019.05 1019.22 1019.36 1019.46 1019.53 1019.61 1019.69 1019.80 1019.93 1020.05 1020.17 1020.25
1020.92 1021.46 1021.85 1022.02 1021.93 1021.58 1021.02 1020.32 1019.56 1018.84 1018.21 1017.71 1017.33 1017.06 1016.85 1016.67 1016.50 1016.33 1016.16 1016.04 1015.98 1016.02 1016.16 1016.40 1016.69 1017.02 1017.32 1017.58 1017.79 1017.94 1018.06 1018.17 1018.30 1018.46 1018.65 1018.86 1019.07 1019.26 1019.42 1019.53 1019.62 1019.69 1019.76 1019.85 1019.96 1020.07 1020.19 1020.27 1020.32
1021.86 1022.34 1022.63 1022.68 1022.47 1022.03 1021.42 1020.71 1020.00 1019.35 1018.81 1018.39 1018.09 1017.87 1017.69 1017.52 1017.34 1017.14 1016.94 1016.77 1016.65 1016.59 1016.62 1016.72 1016.88 1017.06 1017.24 1017.41 1017.57 1017.71 1017.86 1018.03 1018.22 1018.45 1018.69 1018.92 1019.13 1019.30 1019.43 1019.51 1019.58 1019.64 1019.72 1019.81 1019.93 1020.06 1020.18 1020.27 1020.30
1022.80 1023.18 1023.35 1023.27 1022.94 1022.41 1021.75 1021.05 1020.37 1019.78 1019.32 1018.99 1018.76 1018.60 1018.48 1018.35 1018.20 1018.03 1017.84 1017.66 1017.50 1017.37 1017.28 1017.23 1017.21 1017.21 1017.23 1017.27 1017.33 1017.43 1017.58 1017.77 1018.01 1018.27 1018.54 1018.78 1018.97 1019.11 1019.20 1019.25 1019.28 1019.33 1019.41 1019.53 1019.67 1019.83 1019.98 1020.10 1020.15
1023.70 1023.97 1024.01 1023.80 1023.37 1022.77 1022.09 1021.40 1020.77 1020.26 1019.87 1019.60 1019.44 1019.34 1019.27 1019.20 1019.11 1018.99 1018.85 1018.69 1018.52 1018.33 1018.14 1017.94 1017.75 1017.56 1017.39 1017.26 1017.19 1017.21 1017.31 1017.49 1017.73 1018.00 1018.26 1018.48 1018.63 1018.72 1018.75 1018.75 1018.75 1018.78 1018.86 1018.99 1019.17 1019.38 1019.57 1019.73 1019.83
1024.53 1024.68 1024.59 1024.29 1023.80 1023.20 1022.55 1021.92 1021.36 1020.92 1020.60 1020.39 1020.27 1020.20 1020.16 1020.13 1020.09 1020.04 1019.95 1019.83 1019.66 1019.45 1019.17 1018.85 1018.49 1018.12 1017.77 1017.47 1017.27 1017.17 1017.19 1017.32 1017.52 1017.76 1017.97 1018.14 1018.23 1018.24 1018.19 1018.13 1018.07 1018.07 1018.14 1018.28 1018.48 1018.72 1018.96 1019.16 1019.31
1025.29 1025.31 1025.14 1024.79 1024.32 1023.77 1023.22 1022.71 1022.27 1021.92 1021.67 1021.49 1021.36 1021.29 1021.23 1021.20 1021.17 1021.14 1021.09 1021.00 1020.85 1020.63 1020.31 1019.90 1019.42 1018.90 1018.40 1017.96 1017.62 1017.42 1017.35 1017.40 1017.54 1017.70 1017.84 1017.92 1017.92 1017.83 1017.70 1017.55 1017.43 1017.37 1017.41 1017.53 1017.74 1017.98 1018.23 1018.46 1018.62
1025.98 1025.90 1025.68 1025.35 1024.96 1024.56 1024.18 1023.84 1023.56 1023.32 1023.13 1022.95 1022.80 1022.65 1022.53 1022.43 1022.35 1022.30 1022.24 1022.17 1022.03 1021.80 1021.46 1021.00 1020.45 1019.85 1019.25 1018.71 1018.29 1018.00 1017.85 1017.83 1017.88 1017.96 1018.01 1017.98 1017.87 1017.69 1017.45 1017.20 1017.00 1016.87 1016.84 1016.92 1017.07 1017.28 1017.50 1017.70 1017.84
1026.61 1026.47 1026.25 1026.00 1025.76 1025.56 1025.41 1025.30 1025.20 1025.10 1024.95 1024.77 1024.53 1024.28 1024.02 1023.79 1023.60 1023.47 1023.36 1023.26 1023.11 1022.88 1022.54 1022.07 1021.51 1020.89 1020.26 1019.69 1019.23 1018.90 1018.70 1018.62 1018.60 1018.60 1018.55 1018.43 1018.21 1017.92 1017.57 1017.23 1016.93 1016.72 1016.60 1016.58 1016.65 1016.76 1016.89 1017.00 1017.07
1027.19 1027.02 1026.84 1026.73 1026.69 1026.74 1026.85 1026.99 1027.09 1027.11 1027.02 1026.79 1026.46 1026.05 1025.62 1025.22 1024.88 1024.61 1024.41 1024.24 1024.06 1023.82 1023.49 1023.05 1022.51 1021.92 1021.33 1020.79 1020.35 1020.03 1019.83 1019.72 1019.66 1019.59 1019.47 1019.26 1018.95 1018.57 1018.14 1017.70 1017.31 1016.99 1016.76 1016.62 1016.55 1016.52 1016.51 1016.47 1016.41
1027.74 1027.56 1027.46 1027.50 1027.68 1027.99 1028.37 1028.74 1029.03 1029.16 1029.10 1028.83 1028.39 1027.82 1027.21 1026.62 1026.10 1025.68 1025.36 1025.11 1024.87 1024.61 1024.29 1023.88 1023.40 1022.88 1022.37 1021.91 1021.54 1021.27 1021.10 1021.00 1020.93 1020.83 1020.66 1020.39 1020.02 1019.58 1019.08 1018.57 1018.10 1017.68 1017.34 1017.06 1016.83 1016.63 1016.42 1016.21 1015.97
1028.27 1028.10 1028.09 1028.29 1028.67 1029.21 1029.82 1030.38 1030.82 1031.03 1030.98 1030.66 1030.11 1029.41 1028.64 1027.88 1027.20 1026.64 1026.20 1025.86 1025.56 1025.27 1024.95 1024.58 1024.16 1023.72 1023.30 1022.94 1022.66 1022.47 1022.36 1022.30 1022.24 1022.13 1021.94 1021.65 1021.26 1020.79 1020.26 1019.72 1019.19 1018.70 1018.25 1017.84 1017.44 1017.06 1016.66 1016.24 1015.81
1028.79 1028.65 1028.73 1029.06 1029.61 1030.31 1031.07 1031.76 1032.27 1032.51 1032.44 1032.07 1031.45 1030.65 1029.77 1028.91 1028.13 1027.47 1026.95 1026.53 1026.18 1025.85 1025.52 1025.17 1024.79 1024.42 1024.09 1023.81 1023.62 1023.51 1023.47 1023.45 1023.41 1023.32 1023.13 1022.85 1022.47 1022.00 1021.48 1020.94 1020.40 1019.86 1019.34 1018.82 1018.29 1017.75 1017.17 1016.57 1015.96
1029.36 1029.26 1029.41 1029.82 1030.47 1031.25 1032.06 1032.78 1033.30 1033.51 1033.40 1032.98 1032.31 1031.47 1030.56 1029.67 1028.86 1028.18 1027.62 1027.17 1026.78 1026.42 1026.07 1025.71 1025.36 1025.02 1024.73 1024.52 1024.39 1024.33 1024.32 1024.33 1024.31 1024.23 1024.06 1023.80 1023.45 1023.02 1022.55 1022.04 1021.51 1020.97 1020.42 1019.84 1019.22 1018.56 1017.86 1017.12 1016.37
1030.02 1029.96 1030.16 1030.62 1031.29 1032.07 1032.84 1033.49 1033.92 1034.05 1033.87 1033.40 1032.71 1031.88 1031.01 1030.17 1029.42 1028.79 1028.26 1027.82 1027.42 1027.05 1026.67 1026.29 1025.92 1025.57 1025.29 1025.09 1024.96 1024.91 1024.91 1024.91 1024.89 1024.81 1024.65 1024.41 1024.09 1023.72 1023.30 1022.85 1022.37 1021.87 1021.33 1020.73 1020.08 1019.36 1018.59 1017.77 1016.95
1030.82 1030.80 1031.04 1031.51 1032.13 1032.83 1033.48 1033.99 1034.26 1034.25 1033.97 1033.45 1032.76 1031.99 1031.21 1030.48 1029.86 1029.33 1028.89 1028.50 1028.13 1027.75 1027.35 1026.93 1026.52 1026.13 1025.81 1025.57 1025.41 1025.32 1025.27 1025.24 1025.17 1025.06 1024.89 1024.66 1024.37 1024.04 1023.68 1023.30 1022.89 1022.44 1021.94 1021.37 1020.73 1020.01 1019.23 1018.40 1017.56
1031.77 1031.82 1032.09 1032.53 1033.07 1033.63 1034.09 1034.39 1034.46 1034.28 1033.87 1033.29 1032.61 1031.92 1031.26 1030.69 1030.23 1029.85 1029.53 1029.22 1028.90 1028.52 1028.10 1027.64 1027.17 1026.73 1026.34 1026.03 1025.79 1025.62 1025.49 1025.38 1025.24 1025.07 1024.86 1024.61 1024.33 1024.03 1023.71 1023.39 1023.04 1022.66 1022.21 1021.70 1021.09 1020.41 1019.66 1018.87 1018.07
1032.88 1033.00 1033.29 1033.69 1034.13 1034.51 1034.76 1034.82 1034.66 1034.28 1033.74 1033.10 1032.43 1031.81 1031.29 1030.88 1030.57 1030.35 1030.16 1029.94 1029.67 1029.31 1028.87 1028.38 1027.85 1027.34 1026.88 1026.48 1026.15 1025.88 1025.65 1025.43 1025.20 1024.94 1024.67 1024.37 1024.07 1023.77 1023.48 1023.19 1022.89 1022.55 1022.16 1021.70 1021.15 1020.52 1019.83 1019.10 1018.37
1034.08 1034.28 1034.59 1034.94 1035.26 1035.46 1035.49 1035.31 1034.92 1034.36 1033.69 1032.99 1032.33 1031.78 1031.36 1031.08 1030.92 1030.82 1030.73 1030.59 1030.36 1030.02 1029.58 1029.06 1028.49 1027.93 1027.40 1026.92 1026.50 1026.13 1025.79 1025.46 1025.12 1024.77 1024.41 1024.05 1023.70 1023.38 1023.08 1022.80 1022.52 1022.21 1021.84 1021.41 1020.90 1020.33 1019.70 1019.04 1018.38
1035.31 1035.57 1035.88 1036.17 1036.36 1036.39 1036.22 1035.83 1035.25 1034.54 1033.77 1033.01 1032.36 1031.85 1031.51 1031.32 1031.25 1031.23 1031.21 1031.11 1030.90 1030.57 1030.13 1029.59 1029.00 1028.41 1027.83 1027.30 1026.81 1026.36 1025.93 1025.50 1025.07 1024.62 1024.18 1023.74 1023.33 1022.96 1022.63 1022.32 1022.02 1021.71 1021.34 1020.92 1020.43 1019.88 1019.29 1018.68 1018.09
1036.43 1036.72 1037.01 1037.22 1037.28 1037.15 1036.81 1036.26 1035.54 1034.73 1033.89 1033.12 1032.48 1032.00 1031.70 1031.56 1031.53 1031.54 1031.52 1031.43 1031.22 1030.88 1030.43 1029.89 1029.29 1028.69 1028.10 1027.55 1027.02 1026.52 1026.03 1025.53 1025.02 1024.50 1023.98 1023.47 1023.00 1022.57 1022.19 1021.83 1021.49 1021.13 1020.73 1020.28 1019.78 1019.23 1018.65 1018.07 1017.51
1037.35 1037.62 1037.83 1037.92 1037.85 1037.58 1037.10 1036.45 1035.66 1034.80 1033.96 1033.21 1032.60 1032.16 1031.89 1031.75 1031.71 1031.70 1031.65 1031.52 1031.27 1030.91 1030.45 1029.91 1029.33 1028.74 1028.17 1027.61 1027.08 1026.56 1026.04 1025.50 1024.94 1024.37 1023.79 1023.23 1022.70 1022.21 1021.77 1021.35 1020.94 1020.52 1020.06 1019.56 1019.02 1018.44 1017.85 1017.27 1016.73
Thickness
5706 5711 5713 5707 5690 5673 5674 5688 5701 5706 5711 5718 5721 5718 5710 5706 5704 5699 5711 5716 5714 5711 5708 5706 5704 5702 5701 5700 5699 5699 5698 5698 5697 5697 5696 5696 5695 5694 5694 5694 5693 5693 5693 5692 5692 5691 5690 5689 5689
5703 5707 5704 5691 5672 5661 5669 5687 5696 5705 5713 5719 5719 5715 5707 5705 5710 5709 5710 5713 5712 5709 5706 5704 5703 5701 5700 5699 5698 5697 5697 5696 5696 5695 5695 5694 5693 5692 5692 5691 5691 5690 5690 5690 5689 5688 5687 5687 5686
5700 5702 5688 5675 5664 5661 5674 5688 5695 5705 5714 5716 5710 5709 5705 5703 5708 5709 5711 5711 5709 5706 5704 5702 5701 5699 5698 5697 5696 5696 5695 5694 5694 5693 5693 5692 5691 5690 5690 5689 5688 5688 5687 5687 5686 5685 5685 5684 5684
5691 5686 5676 5663 5663 5670 5679 5688 5696 5702 5708 5712 5706 5698 5701 5707 5710 5711 5711 5709 5706 5704 5702 5700 5698 5697 5696 5695 5694 5693 5693 5692 5692 5691 5691 5690 5689 5688 5687 5687 5686 5685 5685 5684 5683 5683 5682 5681 5681
5681 5671 5660 5653 5661 5673 5682 5690 5696 5696 5699 5703 5700 5692 5693 5703 5710 5709 5707 5705 5703 5700 5698 5697 5696 5694 5693 5692 5691 5691 5690 5690 5689 5689 5688 5687 5686 5686 5685 5684 5683 5683 5682 5681 5681 5680 5679 5678 5678
5663 5657 5645 5643 5657 5671 5680 5688 5691 5692 5693 5697 5694 5687 5688 5697 5701 5701 5702 5700 5699 5696 5695 5693 5693 5691 5690 5690 5689 5688 5688 5687 5686 5686 5685 5684 5684 5683 5682 5682 5681 5680 5679 5678 5678 5677 5676 5676 5675
5652 5645 5640 5645 5652 5662 5675 5684 5683 5684 5687 5691 5693 5682 5683 5690 5695 5696 5696 5695 5693 5692 5690 5690 5689 5688 5687 5687 5686 5685 5684 5684 5683 5683 5682 5681 5680 5680 5679 5678 5678 5677 5676 5675 5675 5674 5673 5673 5673
5649 5640 5637 5639 5645 5656 5670 5677 5681 5682 5684 5691 5691 5679 5677 5686 5690 5691 5690 5688 5687 5687 5686 5685 5685 5685 5684 5683 5682 5682 5681 5680 5680 5679 5678 5678 5677 5676 5676 5675 5675 5674 5673 5673 5672 5671 5671 5670 5670
5644 5628 5625 5634 5641 5650 5662 5666 5673 5681 5680 5681 5682 5682 5685 5686 5686 5683 5682 5681 5681 5681 5681 5681 5681 5680 5680 5680 5679 5678 5677 5677 5676 5675 5674 5674 5673 5673 5672 5671 5671 5671 5670 5670 5669 5668 5668 5667 5667
5627 5617 5625 5637 5642 5646 5652 5656 5661 5667 5666 5667 5670 5675 5680 5679 5678 5676 5675 5675 5676 5676 5677 5677 5677 5676 5676 5676 5675 5674 5674 5673 5672 5671 5671 5670 5670 5669 5669 5668 5668 5667 5667 5666 5665 5665 5664 5664 5664
5618 5616 5625 5632 5638 5642 5644 5648 5654 5655 5654 5658 5661 5665 5669 5670 5670 5670 5670 5672 5673 5673 5673 5673 5673 5673 5672 5672 5671 5671 5670 5669 5668 5668 5667 5666 5666 5665 5665 5664 5664 5664 5663 5662 5662 5661 5661 5660 5661
5608 5614 5620 5624 5630 5633 5635 5639 5642 5645 5650 5658 5661 5662 5662 5661 5662 5664 5664 5666 5667 5667 5668 5669 5669 5669 5669 5668 5668 5667 5667 5666 5665 5664 5664 5663 5662 5661 5661 5661 5660 5660 5659 5659 5658 5658 5657 5657 5657
5598 5603 5610 5616 5620 5624 5628 5629 5632 5636 5645 5650 5652 5652 5652 5653 5654 5656 5659 5660 5661 5662 5663 5664 5665 5665 5665 5664 5663 5663 5663 5662 5662 5661 5660 5659 5658 5657 5657 5657 5656 5656 5655 5655 5654 5654 5654 5653 5654
5589 5593 5598 5605 5610 5615 5617 5621 5624 5629 5636 5639 5640 5640 5642 5645 5647 5648 5650 5652 5654 5657 5659 5660 5660 5661 5661 5660 5660 5660 5659 5658 5657 5657 5656 5656 5655 5654 5653 5653 5652 5652 5651 5651 5651 5650 5650 5650 5650
5580 5581 5585 5593 5599 5605 5609 5607 5611 5620 5625 5626 5627 5629 5631 5635 5637 5639 5642 5644 5647 5650 5652 5654 5656 5656 5656 5656 5655 5655 5655 5654 5653 5652 5652 5652 5651 5650 5649 5649 5648 5648 5648 5648 5647 5647 5646 5646 5646
5566 5564 5565 5578 5586 5593 5592 5587 5602 5609 5612 5612 5615 5618 5620 5623 5625 5629 5633 5636 5640 5642 5644 5646 5649 5650 5650 5651 5651 5650 5649 5649 5648 5648 5647 5647 5646 5646 5645 5644 5644 5644 5644 5643 5642 5642 5641 5641 5641
5545 5546 5552 5563 5572 5576 5576 5576 5588 5596 5599 5600 5602 5605 5608 5612 5615 5618 5622 5626 5630 5633 5635 5637 5639 5641 5642 5643 5644 5644 5643 5643 5642 5642 5641 5641 5641 5641 5640 5640 5640 5639 5639 5638 5638 5637 5636 5635 5636
5531 5534 5540 5546 5555 5560 5559 5563 5573 5582 5586 5586 5588 5591 5594 5598 5602 5607 5612 5615 5619 5622 5624 5626 5629 5631 5633 5635 5636 5636 5636 5636 5635 5635 5634 5635 5635 5635 5634 5634 5634 5633 5633 5632 5632 5631 5630 5630 5630
5525 5525 5526 5535 5545 5547 5547 5552 5558 5566 5571 5573 5574 5577 5581 5584 5590 5596 5600 5604 5607 5610 5613 5615 5618 5620 5622 5624 5626 5627 5627 5627 5626 5626 5626 5627 5627 5627 5627 5627 5626 5626 5626 5626 5626 5625 5624 5623 5623
5515 5514 5516 5523 5533 5536 5534 5538 5546 5552 5556 5561 5563 5565 5569 5573 5578 5582 5586 5590 5593 5597 5600 5603 5605 5608 5611 5613 5614 5616 5616 5616 5616 5616 5616 5616 5616 5617 5619 5619 5618 5618 5618 5617 5617 5617 5616 5616 5614
5503 5504 5507 5511 5518 5524 5526 5525 5533 5539 5546 5550 5552 5555 5557 5561 5565 5568 5572 5575 5578 5582 5586 5590 5592 5595 5597 5599 5601 5603 5604 5604 5605 5605 5605 5605 5606 5606 5606 5607 5608 5609 5609 5609 5609 5608 5607 5607 5607
5495 5502 5504 5505 5503 5504 5512 5504 5517 5525 5531 5537 5539 5540 5543 5547 5551 5554 5558 5561 5563 5567 5571 5576 5579 5581 5583 5586 5587 5589 5589 5590 5591 5591 5592 5593 5593 5594 5594 5595 5596 5597 5598 5598 5599 5599 5598 5597 5597
5488 5495 5497 5497 5495 5492 5497 5494 5501 5512 5518 5523 5526 5528 5529 5533 5537 5540 5543 5546 5550 5553 5557 5560 5564 5567 5569 5571 5572 5573 5574 5575 5576 5576 5577 5579 5580 5581 5581 5581 5583 5583 5584 5585 5586 5587 5587 5586 5586
5483 5485 5485 5481 5478 5476 5487 5486 5489 5498 5509 5513 5514 5515 5516 5519 5522 5526 5529 5533 5536 5539 5543 5545 5548 5550 5553 5555 5557 5558 5559 5559 5560 5560 5561 5563 5565 5567 5567 5568 5568 5569 5570 5571 5573 5575 5575 5575 5574
5473 5466 5456 5455 5451 5460 5479 5480 5483 5494 5501 5503 5502 5501 5503 5506 5508 5512 5515 5519 5521 5524 5527 5530 5532 5534 5536 5539 5541 5543 5543 5544 5544 5544 5545 5546 5548 5550 5552 5553 5553 5554 5555 5557 5558 5559 5561 5562 5561
5465 5462 5449 5447 5451 5457 5468 5470 5478 5489 5491 5492 5491 5491 5492 5494 5495 5497 5499 5503 5506 5509 5512 5514 5516 5518 5520 5523 5524 5525 5526 5527 5528 5528 5528 5529 5531 5533 5535 5537 5538 5539 5540 5541 5542 5543 5544 5545 5546
5458 5455 5457 5446 5436 5439 5451 5459 5473 5481 5481 5482 5481 5480 5480 5481 5483 5485 5487 5489 5492 5495 5497 5499 5501 5503 5504 5506 5508 5509 5510 5510 5511 5511 5512 5513 5514 5516 5519 5521 5522 5524 5525 5525 5526 5526 5527 5528 5528
5456 5454 5445 5434 5429 5433 5450 5459 5462 5471 5472 5472 5470 5468 5469 5471 5472 5473 5475 5477 5479 5480 5482 5484 5486 5487 5489 5490 5491 5492 5493 5493 5493 5494 5495 5496 5497 5499 5502 5504 5505 5507 5508 5508 5508 5508 5509 5510 5511
5446 5445 5442 5433 5429 5431 5437 5457 5469 5467 5467 5464 5461 5460 5459 5459 5460 5460 5462 5463 5465 5467 5469 5470 5471 5472 5473 5474 5474 5475 5476 5476 5477 5477 5477 5478 5479 5481 5484 5487 5487 5488 5490 5490 5490 5491 5492 5492 5493
5443 5441 5437 5428 5422 5430 5439 5451 5465 5462 5459 5457 5455 5453 5451 5450 5448 5448 5449 5450 5451 5452 5454 5455 5456 5456 5457 5458 5458 5458 5458 5458 5459 5459 5459 5460 5461 5463 5466 5468 5469 5470 5470 5471 5472 5473 5474 5474 5475